SCP
0 0 0 0 0 0 0 0 0 0 0 0 0 0 0 0 0 0 0 0 0 0 0 0 0 0 0 0 0 0 0 0 0 0 0 0 0 0
0 0 0 0 0 0 0 0 0 0 0 0 0 0 0 0 0 0 0 0 0 0 0 0 0 0 0 0 0 0 0 0 0 0 0 0 0 0
0 0 0 0 0 0 0 0 0 0 0 0 0 0 0 0 0 0 0 0 0 0 0 0 0 0 0 0 0 0 0 0 0 0 0 0 0 0
0 0 0 0 0 0 0 0 0 0 0 0 0 0 0 0 0 0 0 0 0 0 0 0 0 0 0 0 0 0 0 0 0 0 0 0 0 0
0 0 0 0 0 0 0 0 0 0 0 0 0 0 0 0 0 0 0 0 0 0 0 0 0 0 0 0 -0 0 0 0 0 0 0 0 0 0
0 0 0 0 0 0 0 0 0 0 0 0 0 0 0 0 0 0 0 0 0 0 0 0 0 0 0 0 0 0 0 0 0 0 0 0 0 0
0 0 0 0 0 0 0 0 0 0 0 0 0 0 0 0 0 0 0 0 0 0 0 0 0 0 0 0 0 0 0 0 0 0 0 0 0 0
0 0 0 0 0 0 0 0 0 0 0 0 0 0 0 0 0 0 0 0 0 0 0 0 0 0 0 0 0 0 0 0 0 0 0 0 0 0
0 0 0 0 0 0 0 0 0 0 0 0 0 0 0 0 0 0 0 0 0 0 0 0 0 0 0 0 0 0 0 0 0 0 0 0 0 0
0 0 0 0 0 0 0 0 0 0 0 0 0 0 0 0 0 0 0 0 0 0 0 0 0 0 0 0 0 0 0 0 0 0 0 0 0 0
0 0 0 0 0 0 0 0 0 0 0 0 0 0 0 0 0 0 0 0 0 0 0 0 0 0 0 0 0 0 0 0 0 0 0 0 0 0
0 0 0 0 0 0 0 0 0 0 0 0 0 0 0 0 0 0 0 0 0 0 0 0 0 0 0 0 0 0 0 0 0 0 0 0 0 0
0 0 0 0 0 0 0 0 0 0 0 0 0 0 0 0 0 0 0 0 0 0 0 0 0 0 0 0 0 0 0 0 0 0 0 0 0 0
0 0 0 0 0 0 0 0 0 0 0 0 0 0 0 0 0 0 0 0 0 0 0 0 0 0 0 0 0 0 0 0 0 0 0 0 0 0
0 0 0 0 0 0 0 0 0 0 0 0 0 0 0 0 0 0 0 0 0 0 0 0 0 0 0 0 0 0 0 0 0 0 0 0 0 0
0 0 0 0 0 0 0 0 0 0 0 0 0 0 0 0 0 0 0 0 0 0 0 0 0 0 0 0 0 0 0 0 0 0 0 0 0 0
0 0 0 0 0 0 0 0 0 0 0 0 0 0 0 0 0 0 0 0 0 0 0 0 0 0 0 0 0 0 0 0 0 0 0 0 0 0
0 0 0 0 0 0 0 0 0 0 0 0 0 0 0 0 0 0 0 0 0 0 0 0 0 0 0 0 0 0 0 0 0 0 0 0 0 0
0 0 0 0 0 0 0 0 0 0 0 0 0 0 0 0 0 0 0 0 0 0 0 0 0 0 0 0 0 0 0 0 0 0 0 0 0 0
0 0 0 0 0 0 0 0 0 0 0 0 0 0 0 0 0 0 0 0 0 0 0 0 0 0 0 0 0 0 0 0 0 0 0 0 0 0
0 0 0 0 0 0 0 0 0 0 0 0 0 0 0 0 0 0 0 0 0 0 0 0 0 0 0 0 0 0 0 0 0 0 0 0 0 0
0 0 0 0 0 0 0 0 0 0 0 0 0 0 0 0 0 0 0 0 0 0 0 0 0 0 0 0 0 0 0 0 0 0 0 0 0 0
0 0 0 0 0 0 0 0 0 0 0 0 0 0 0 0 0 0 0 0 0 0 0 0 0 0 0 0 0 0 0 0 0 0 0 0 0 0
Wind_Speed
2 1 0 0 1 2 2 2 2 2 4 4 3 2 2 2 4 2 1 1 1 3 4 7 11 15 17 17 17 18 18 16 15 15 15 15 15 16
1 1 0 1 1 1 1 1 2 4 5 4 3 3 3 3 4 3 3 4 4 5 7 10 12 14 14 15 15 15 14 14 13 13 13 13 13 13
1 0 1 1 1 2 2 1 3 4 5 4 3 3 4 4 4 3 3 3 3 6 8 11 12 13 13 13 13 13 13 13 13 13 13 13 13 13
2 3 4 4 5 4 3 3 3 3 4 5 3 2 4 4 4 4 3 4 4 7 9 10 11 12 12 12 12 12 12 12 13 13 14 14 14 14
5 5 5 5 5 4 4 4 4 4 3 3 3 2 2 2 3 3 3 2 4 7 8 9 10 11 11 11 11 11 11 12 12 13 13 13 14 14
6 6 5 5 4 4 4 5 5 5 4 2 2 2 1 1 2 3 2 2 2 5 6 7 9 11 11 11 12 13 13 13 13 13 13 13 14 14
5 5 6 8 7 4 3 5 6 5 4 3 3 2 2 1 1 2 3 2 1 2 3 4 5 5 7 11 14 15 15 15 15 15 15 15 15 15
6 5 6 9 9 8 7 8 7 5 5 4 3 3 4 3 1 0 2 3 2 1 3 3 4 5 6 6 11 15 16 16 16 16 16 16 16 16
6 6 7 9 10 7 8 9 9 10 9 4 4 4 4 5 3 2 1 2 2 1 2 2 3 4 4 5 11 13 14 15 15 16 16 16 16 15
5 5 6 7 8 7 7 7 7 7 7 4 2 3 3 4 3 2 1 2 2 1 1 1 1 2 3 3 8 10 11 12 12 13 13 13 13 14
4 5 6 6 10 10 8 8 8 8 8 8 5 4 6 7 5 3 3 2 1 1 1 1 1 1 2 3 5 9 10 10 10 9 8 7 8 9
4 5 9 9 10 10 7 6 8 7 8 8 6 5 5 6 6 3 1 1 0 1 1 0 1 0 2 1 3 4 4 6 8 8 8 7 7 4
4 5 6 12 12 11 7 5 5 5 4 6 6 5 5 5 4 3 1 1 1 2 2 1 1 1 1 2 1 3 4 4 4 4 6 8 8 4
4 4 5 11 11 11 7 9 11 8 5 5 5 6 5 5 5 4 3 2 2 3 3 2 1 1 1 1 1 1 2 3 3 3 3 6 6 4
3 7 9 11 9 7 8 10 8 5 5 5 5 5 4 5 5 5 5 3 3 2 2 2 2 1 1 1 1 1 1 0 1 2 2 3 3 2
5 7 9 9 7 6 6 6 5 4 3 3 4 4 5 6 6 6 5 5 4 4 4 2 2 2 1 1 1 0 1 1 1 1 2 2 3 3
4 4 5 5 6 5 5 4 4 5 4 4 4 5 5 6 5 4 4 4 4 4 5 4 3 1 2 2 1 1 1 1 1 1 3 3 4 3
4 3 4 4 4 4 3 4 4 4 4 4 4 4 5 5 5 5 4 4 4 4 4 4 4 3 3 1 2 2 2 2 1 3 3 3 2 1
3 2 2 3 3 3 3 3 3 4 4 4 4 4 4 4 4 5 5 5 5 4 4 4 4 3 2 3 4 0 2 2 2 2 3 3 4 3
2 1 2 2 2 2 3 3 3 4 4 4 4 4 4 4 4 5 5 5 5 5 5 4 4 4 2 2 4 3 2 1 2 3 3 3 3 3
1 2 2 2 1 2 2 3 3 3 3 3 4 4 4 4 4 4 4 7 6 5 6 6 6 7 4 3 3 4 4 5 2 2 4 4 3 2
4 3 3 3 3 2 2 2 3 3 3 3 3 4 4 3 3 3 4 4 4 4 4 5 6 5 4 2 2 4 5 5 6 5 3 3 5 6
5 4 4 4 3 3 3 3 3 2 2 2 3 3 4 3 3 3 3 3 3 3 4 5 5 4 3 2 2 2 4 5 5 5 5 6 4 1
Wind_Direction
30 58 106 253 252 242 229 201 199 275 280 266 263 264 208 184 184 172 179 211 67 64 82 112 130 138 143 148 154 161 167 172 175 179 186 193 201 209
340 350 331 265 259 256 260 240 211 227 250 258 250 240 210 202 187 166 164 140 119 109 106 112 120 127 134 141 149 156 162 166 172 178 185 193 200 207
311 67 43 38 17 9 349 297 239 220 236 262 257 245 211 198 170 158 145 136 135 133 126 125 130 136 143 150 157 162 166 173 179 185 190 195 200 208
61 59 37 30 25 8 354 330 299 266 237 257 269 252 223 201 175 164 158 158 153 160 151 148 149 153 160 166 174 180 184 188 191 194 197 201 207 214
59 53 38 32 22 2 357 347 326 314 271 252 266 261 245 179 156 158 166 151 166 169 171 171 170 172 177 183 190 198 202 205 206 206 207 210 215 219
59 51 36 25 11 356 356 351 343 340 332 309 288 292 282 220 153 153 154 153 166 166 174 179 186 189 192 197 204 210 214 216 216 215 216 218 220 223
50 40 32 21 10 0 355 351 353 352 347 349 348 352 356 5 203 167 154 136 117 140 151 172 177 188 199 211 215 218 218 218 218 217 218 221 224 227
41 19 21 22 12 17 15 14 14 9 356 353 352 359 355 346 341 140 138 138 157 145 144 174 174 190 200 204 215 217 220 220 218 217 218 221 225 229
52 39 38 29 27 27 25 19 12 14 20 10 3 353 343 345 350 27 74 119 145 155 137 176 183 192 192 201 210 214 218 221 219 217 218 222 227 231
49 46 49 34 25 30 32 19 5 357 351 359 352 329 331 332 347 4 53 74 67 30 70 184 200 201 186 194 199 196 201 209 212 216 219 224 229 232
32 33 39 37 22 35 36 18 9 360 355 351 331 325 339 355 6 33 41 60 43 338 354 177 228 243 211 207 203 197 186 186 190 191 192 199 213 218
15 19 28 30 28 36 39 26 11 343 348 6 8 347 340 343 358 24 43 77 82 289 270 194 237 343 285 238 189 191 192 189 181 170 153 145 151 160
28 8 0 10 19 25 35 31 355 336 357 19 20 6 353 346 337 324 279 159 153 260 255 184 225 204 236 273 221 199 200 196 190 167 144 135 140 143
25 352 345 0 6 8 14 10 15 21 19 24 25 12 358 346 331 321 298 256 218 227 245 194 226 223 230 250 260 252 211 200 196 178 150 135 134 146
1 352 357 2 359 358 0 9 15 22 25 29 21 4 342 340 353 347 343 338 326 294 260 216 222 243 216 238 262 288 300 254 178 155 140 134 128 115
356 347 353 358 5 357 358 8 15 21 31 29 8 351 353 1 9 5 355 346 343 324 323 307 265 226 225 218 209 272 338 337 357 44 53 58 63 68
347 360 3 357 358 357 1 8 15 22 27 22 22 13 7 4 360 354 351 352 351 331 328 336 346 333 230 192 191 233 247 314 340 51 57 58 60 65
27 10 351 350 350 353 4 8 14 17 13 19 30 26 17 9 359 353 358 3 353 340 337 335 351 2 359 323 202 196 202 208 187 152 128 111 113 111
47 20 8 7 16 26 30 30 15 4 11 27 32 29 27 20 11 7 7 5 358 348 344 350 3 18 12 328 312 141 175 180 148 142 150 137 151 170
81 89 61 49 53 51 45 41 33 28 31 28 24 23 23 26 20 8 9 9 3 359 1 8 1 351 329 289 293 319 29 91 134 133 126 91 83 86
159 144 138 124 103 79 62 58 59 52 44 36 23 16 14 23 25 12 5 9 14 11 9 357 331 325 309 322 329 335 351 15 34 146 134 121 121 141
192 175 162 155 147 129 103 84 69 54 42 39 22 9 3 11 13 16 13 10 5 1 358 348 339 353 15 9 1 345 340 348 7 37 72 146 158 177
192 184 172 167 167 160 139 117 111 91 63 49 32 16 11 1 347 351 359 359 354 354 355 352 352 358 5 352 351 357 355 355 358 357 350 355 1 255